weather.gov     
National Weather Service

Regional Weather Roundup
NWS Homepage
This page is being discontinued on March 12, 2014.
The same data is available at this site. Please update your bookmarks.
Thank you, and we apologize for the inconvenience.
Please send an email to SR-SRH.Webmaster@noaa.gov with any concerns.


Current Version
Previous Version:    01  02  03  04  05  06  07  08  09  10  11  12  13  14  15  16  17  18  19  20  21  22  23  24  25  26  
[Printable]
656
ASUS42 KKEY 251610
RWRKEY

FLORIDA REGIONAL WEATHER ROUNDUP FOR THE FLORIDA KEYS
NATIONAL WEATHER SERVICE KEY WEST FLORIDA
1200 PM EDT SAT OCT 25 2014

...SOUTH FLORIDA AND THE KEYS...

CITY           SKY/WX    TMP DP  RH WIND       PRES   REMARKS
FORT MYERS     SUNNY     77  58  51 N12       29.97F
SW REGIONAL AP SUNNY     77  58  51 N9        29.98S
NAPLES         SUNNY     79  61  53 NE9       29.96S
MIAMI          MOSUNNY   81  56  42 NW8       29.93S
WEST KENDALL   SUNNY     83  59  44 N14       29.93F
HOMESTEAD      SUNNY     81  61  51 N15       29.93S
MARATHON       SUNNY     79  68  69 N9        29.93S
BOCA CHICA NAS MOSUNNY   80  67  64 N13       29.95S
KEY WEST INTL  SUNNY     79  68  69 N12       29.95F

...INTERNATIONAL WEATHER...

CITY           SKY/WX    TMP DP  RH WIND       PRES   REMARKS
NASSAU BAHAMAS PTSUNNY   82  68  61 NE12      29.86F
CANCUN MEXICO  PTSUNNY   82  66  57 N10       29.98S
COZUMEL MEXICO PTSUNNY   79  68  69 N12       29.98R

ADJACENT COASTAL WATERS...

STATION/POSITION TIME  SKY/WX   TEMP    WIND        PRES    WAVE
                                AIR SEA DIR/SP/G            HT/PER
                 (UTC)          (F)     (DEG/KT/KT) (MB)    (FT/S)
PULASKI SHOAL LI 1500            76      20/ 16/ 18 1014.8R
SAND KEY         1537            75      10/ 17/ 20 1014.3R
SOMBRERO KEY     1600            75      10/ 13/ 14 1013.9R
LONG KEY         1458            74 76   20/ 14/ 15 1014.3R
MOLASSES REEF    1600            77 82   10/ 15/ 17 1013.0S
FOWEY ROCKS      1600            78 81  350/ 17/ 19 1013.4S
Buoy 42080       NOT AVBL

$$




U.S. Dept. of Commerce
NOAA National Weather Service
1325 East West Highway
Silver Spring, MD 20910
E-mail: w-nws.webmaster@noaa.gov
Page last modified: May 16, 2007
NATIONAL WEATHER SERVICE: for Safety, for Work, for Fun - FOR LIFE